Hors Challenge

Le Trail De La Strange à Hollange (8.00 km)

samedi 13 avril 2019

Vous pouvez trouver Le classement original sur : http://www.hollangevtt.be/trail/index_trail.html
 
LE TRAIL DE LA STRANGE - HOLLANGE
DISTANCE : 7.98 km
samedi 13 avril 2019
 
Place dos NOM Catégorie Pl/cat temps temps/km Vitesse
01:00:00              
1 156 DETAIL FRANCOIS HOMME 1 00:42:45 05:21 11.20
2 199 BOLLET PATRICK HOMME 2 00:44:21 05:33 10.80
3 274 VANDERSANDEN MATHIEU HOMME 3 00:46:43 05:51 10.25
4 209 LEROY FRANCOIS HOMME 4 00:48:01 06:01 9.97
5 265 GIOT YANNIC HOMME 5 00:48:44 06:06 9.82
6 270 BRAQUET CORENTIN HOMME 6 00:48:50 06:07 9.80
7 198 SON KATHLEEN DAME 1 00:48:53 06:08 9.79
8 240 HENNECART TOM HOMME 7 00:48:58 06:08 9.78
9 255 LUCAS JOACHIM HOMME 8 00:49:50 06:15 9.61
10 262 PIERRET NOAH HOMME 9 00:49:55 06:15 9.59
11 227 PONCELET COLLIN HOMME 10 00:50:19 06:18 9.52
12 267 SERVAIS CEDRIC HOMME 11 00:50:29 06:20 9.48
13 236 DUMONT GUILLAUME HOMME 12 00:50:38 06:21 9.46
14 254 THERER ROMAIN HOMME 13 00:50:59 06:23 9.39
15 228 MAROIN THIBAUT HOMME 14 00:51:51 06:30 9.23
16 241 VAGNET NICOLAS HOMME 15 00:51:56 06:30 9.22
17 264 HUBERT LENA DAME 2 00:52:00 06:31 9.21
18 169 MATHU JEREMY HOMME 16 00:52:53 06:38 9.05
19 263 PASAU JEAN-JULIEN HOMME 17 00:52:58 06:38 9.04
20 271 NEERINCK MAXIME HOMME 18 00:53:13 06:40 9.00
21 204 VERISTER RENAUD HOMME 19 00:54:11 06:47 8.84
22 248 MAQUET ARNAUD HOMME 20 00:54:46 06:52 8.74
23 187 VELGHE LAURA DAME 3 00:55:54 07:00 8.57
24 233 ROBERT AMAURY HOMME 21 00:56:01 07:01 8.55
25 272 DHAEZE CELINE DAME 4 00:56:29 07:05 8.48
26 261 GAUDRON THOMAS HOMME 22 00:56:32 07:05 8.47
27 253 STEFANO PASCAL HOMME 23 00:57:24 07:12 8.34
28 256 JOURDAIN CAROLE DAME 5 00:57:40 07:14 8.30
29 225 WELVAERT ERIC HOMME 24 00:57:43 07:14 8.30
30 200 ISERENTANT YONI HOMME 25 00:58:20 07:19 8.21
31 201 ISERENTANT FRANCOIS HOMME 26 00:58:23 07:19 8.20
32 176 PRESER JACKY HOMME 27 00:58:33 07:20 8.18
33 235 ROBERT BRIEU HOMME 28 00:59:15 07:25 8.08
34 226 WELVAERT ANTONIN HOMME 29 00:59:47 07:29 8.01
35 246 CALLAERTS PHILIPPE HOMME 30 01:00:05 07:32 7.97
36 212 PLESSIET HENRI HOMME 31 01:00:45 07:37 7.88
37 222 DELACROIX ADRIENNE DAME 6 01:00:47 07:37 7.88
38 202 TARNUS NOEMIE DAME 7 01:01:16 07:41 7.82
39 244 SCHILTE CHRISTOPHE HOMME 32 01:01:41 07:44 7.76
40 203 AUBRY GUILLAUME HOMME 33 01:03:27 07:57 7.55
41 273 ROGIER LUDIVINE DAME 8 01:03:54 08:00 7.49
42 260 DESCAMPS PATRICK HOMME 34 01:04:10 08:02 7.46
43 182 TIBESSAR OCEANE DAME 9 01:05:59 08:16 7.26
44 183 TIBESSAR STEPHANE HOMME 35 01:06:03 08:17 7.25
45 153 COBREVILLE KATHIA DAME 10 01:06:11 08:18 7.23
46 269 DANLOY ISABELLE DAME 11 01:06:40 08:21 7.18
47 216 BURNOTTE MARIE-CECILE DAME 12 01:06:51 08:23 7.16
48 232 VELGHE CHRISTIAN HOMME 36 01:06:59 08:24 7.15
49 266 CAMBIER SUZANNE DAME 13 01:07:12 08:25 7.13
50 258 LASSENCE PIERRE HOMME 37 01:07:16 08:26 7.12
51 268 ASSELBORN LESLIE DAME 14 01:07:19 08:26 7.11
52 181 SCHRANZ PASCALE DAME 15 01:07:25 08:27 7.10
53 213 MORGAN BAUDUIN HOMME 38 01:07:59 08:31 7.04
54 257 LUCAS MYRIAM DAME 16 01:08:02 08:32 7.04
55 223 BALTUS ANNE DAME 17 01:08:15 08:33 7.02
56 224 GABRIEL CHRISTELLE DAME 18 01:08:17 08:33 7.01
57 259 ROLAND FLORENCE DAME 19 01:08:25 08:34 7.00
58 239 TRIBOLET SARAH DAME 20 01:08:45 08:37 6.96
59 211 ORBAN LAURA DAME 21 01:09:10 08:40 6.92
60 221 PAUL MARIE-HELENE DAME 22 01:09:14 08:41 6.92
61 174 PARIZEL SYLVAIN HOMME 39 01:09:35 08:43 6.88
62 157 DEWALQUE AMELIE DAME 23 01:09:39 08:44 6.87
63 194 DUBOIS AMANDINE DAME 24 01:09:42 08:44 6.87
64 195 JEANTY LAETITIA DAME 25 01:10:13 08:48 6.82
65 234 PROTIN LYSIANE DAME 26 01:10:17 08:48 6.81
66 152 CLOSTER CAROLINE HOMME 40 01:10:50 08:53 6.76
67 159 GARCIA EMELINE HOMME 41 01:10:53 08:53 6.75
68 189 ZELER MAELYS DAME 27 01:10:57 08:53 6.75
69 166 LOUIS CHRISTINE DAME 28 01:11:01 08:54 6.74
70 242 LEONAD ELODIE DAME 29 01:12:37 09:06 6.59
71 196 HUSQUET VALERIE DAME 30 01:12:47 09:07 6.58
72 243 PIERRARD CHRISTOPHE HOMME 42 01:12:51 09:08 6.57
73 205 VANMULLEM HERVE HOMME 43 01:13:02 09:09 6.56
74 251 CARTON SANDRA DAME 31 01:13:48 09:15 6.49
75 252 FERY VIRGINIE DAME 32 01:13:52 09:15 6.48
76 250 BLINN NIKKI DAME 33 01:13:54 09:16 6.48
77 249 LANG CLAUDE HOMME 44 01:13:57 09:16 6.47
78 207 HEINRICHS CATHERINE DAME 34 01:14:16 09:18 6.45
79 206 FOX JUSTINE DAME 35 01:14:19 09:19 6.44
80 178 REGNIER CHRISTINE DAME 36 01:14:46 09:22 6.40
81 180 SCHILTZ CLARA DAME 37 01:15:15 09:26 6.36
82 177 PRESER NINA DAME 38 01:15:20 09:26 6.36
83 168 MATHU JEAN_FRANCOIS HOMME 45 01:16:41 09:37 6.24
84 193 HARTMAN LEA DAME 39 01:16:53 09:38 6.23
85 192 DEMEUSE ROBIN HOMME 46 01:16:56 09:38 6.22
86 210 WILLETTE JEAN-MICHEL HOMME 47 01:18:13 09:48 6.12
87 247 LAURENT GAUTHIER HOMME 48 01:18:36 09:51 6.09
88 245 HINEK NATHALIE DAME 40 01:18:59 09:54 6.06
89 179 RODRIGUEZ JEAN_PAUL HOMME 49 01:19:59 10:01 5.99
90 185 VANGEUTE ERIC HOMME 50 01:20:03 10:02 5.98
91 208 ROYEN ISABELLE DAME 41 01:20:08 10:03 5.98
92 215 DEMEIJER CAROLINE DAME 42 01:20:56 10:09 5.92
93 214 PERRIN JADE DAME 43 01:20:59 10:09 5.91
94 231 BREYER SOPHIE DAME 44 01:21:10 10:10 5.90
95 238 LHERMITTE SARAH DAME 45 01:21:46 10:15 5.86
96 150 BARBOT MARIE DAME 46 01:22:06 10:17 5.83
97 275 ISTA COLEEN DAME 47 01:22:11 10:18 5.83
98 237 MISSON STEPHANIE DAME 48 01:22:40 10:22 5.79
99 230 LAMBEAU MARIE DAME 49 01:23:13 10:26 5.75
100 229 DERSAUT LORETTE DAME 50 01:23:17 10:26 5.75
101 165 LEQUIEN CAROLINE DAME 51 01:23:47 10:30 5.71
102 164 LESCEUX SANDRINE DAME 52 01:24:54 10:38 5.64
103 160 GOFFETTE CORINNE HOMME 51 01:24:57 10:39 5.64
104 188 WAROQUIER OLIVIA DAME 53 01:28:03 11:02 5.44
105 219 BOUFFIOUX MARIE DAME 54 01:28:56 11:09 5.38
106 184 TRUSSART SYLVIE DAME 55 01:29:01 11:09 5.38
107 220 LASSERONT LORRIE DAME 56 01:29:17 11:11 5.36
108 158 FURFARO ARCANGELO HOMME 52 01:31:49 11:30 5.21
109 161 GUEUBELS AMANDINE DAME 57 01:31:52 11:31 5.21
110 154 DAVID CHANTAL DAME 58 01:32:03 11:32 5.20
111 154 DAVID CHANTAL DAME 59 01:33:50 11:46 5.10
112 167 MAGEROTTE CHRISTINE DAME 60 01:33:55 11:46 5.10
113 172 MICHAT MARYLENE DAME 61 01:33:58 11:47 5.10
114 162 LABBE BENEDICTE DAME 62 01:34:44 11:52 5.05
115 197 SIMON PASCALE DAME 63 01:45:38 13:14 4.53
116 217 ANDOUCHE PAMELA DAME 64 01:58:15 14:49 4.05
117 218 AUTHELET MARIE DAME 65 01:58:19 14:50 4.05